Date String (YYYY-MM-DD hh:mm:ss) UTC,Instrument flags,Ambient pressure (hPa),Sample flow (lpm),Bypass flow (lpm),Sample temperature (°C),Ambient temperature (°C),ASC tube jacket temperature (°C),LED temperature (°C),Box temperature (°C),Sample RH (%),Span deviation,Mass concentration (μg/m³),Mass concentration (μg/m³),Mass concentration (μg/m³)
DateTimeUTC,F1_M11,P_M11,Q1_M11,Q2_M11,T1_M11,T2_M11,T3_M11,T4_M11,T5_M11,U1_M11,ZSPAN_M11,X0_M11,X2_M11,X1_M11
2021-09-07 19:00:00,,0833.1,5.00,0.00,29.0,25.9,00.0,38.2,30.4,14.2,0000.1,0056.57,0038.92,0036.41
2021-09-07 19:01:00,,0833.0,5.00,0.00,29.0,26.3,00.0,38.1,30.6,14.3,0000.0,0055.55,0038.94,0036.41
2021-09-07 19:02:00,,0833.1,4.99,0.00,29.0,26.8,00.0,38.1,30.7,14.1,-000.1,0055.75,0038.86,0036.39
2021-09-07 19:03:00,,0833.0,5.00,0.00,29.0,27.2,00.0,38.1,30.8,13.8,-000.2,0056.02,0038.77,0036.30
2021-09-07 19:04:00,,0833.0,5.01,0.00,29.1,27.6,00.0,38.1,30.9,13.8,-000.2,0056.40,0038.78,0036.30
2021-09-07 19:05:00,,0833.0,5.00,0.00,29.1,27.9,00.0,38.1,31.0,13.9,0000.0,0056.06,0038.69,0036.25
2021-09-07 19:06:00,,0833.0,5.00,0.00,29.2,28.1,00.0,38.1,31.1,13.8,0000.1,0055.98,0038.67,0036.18
2021-09-07 19:07:00,,0833.0,4.99,0.00,29.2,28.3,00.0,38.1,31.1,14.1,0000.0,0057.39,0038.67,0036.11
2021-09-07 19:08:00,,0833.1,5.02,0.00,29.3,28.1,00.0,38.2,31.1,14.0,0000.3,0058.59,0038.70,0036.12
2021-09-07 19:09:00,,0833.0,5.00,0.00,29.2,26.4,00.0,38.2,30.6,13.8,0000.5,0060.43,0038.71,0036.15
2021-09-07 19:10:00,,0832.9,5.01,0.00,29.0,25.7,00.0,38.1,30.3,13.8,0000.7,0060.10,0038.68,0036.17
2021-09-07 19:11:00,,0832.8,4.99,0.00,29.0,26.1,00.0,38.1,30.5,13.8,0001.2,0058.54,0038.59,0036.14
2021-09-07 19:12:00,,0833.0,5.01,0.00,29.0,26.5,00.0,38.1,30.6,13.7,0001.3,0058.26,0038.53,0036.13
2021-09-07 19:13:00,,0833.0,4.98,0.00,29.0,27.0,00.0,38.1,30.7,13.4,0001.4,0058.52,0038.54,0036.14
2021-09-07 19:14:00,,0832.9,5.00,0.00,29.0,27.4,00.0,38.1,30.8,13.4,0001.3,0058.25,0038.65,0036.25
2021-09-07 19:15:00,,0832.8,4.99,0.00,29.1,27.7,00.0,38.1,30.9,13.3,0001.4,0058.25,0038.74,0036.38
2021-09-07 19:16:00,,0832.8,4.99,0.00,29.1,28.0,00.0,38.1,31.0,13.4,0001.8,0058.07,0038.84,0036.52
2021-09-07 19:17:00,,0832.8,5.02,0.00,29.2,28.2,00.0,38.1,31.1,13.6,0002.3,0058.47,0039.03,0036.70
2021-09-07 19:18:00,,0832.8,4.99,0.00,29.2,27.2,00.0,38.1,30.8,13.7,0002.1,0057.47,0039.08,0036.87
2021-09-07 19:19:00,,0832.7,5.01,0.00,29.1,25.6,00.0,38.1,30.4,14.3,0001.9,0057.35,0039.31,0037.09
2021-09-07 19:20:00,,0832.7,5.00,0.00,28.9,25.6,00.0,38.1,30.3,14.4,0001.8,0056.37,0039.41,0037.21
2021-09-07 19:21:00,,0832.8,5.01,0.00,28.9,26.1,00.0,38.0,30.5,14.2,0001.9,0056.65,0039.55,0037.33
2021-09-07 19:22:00,,0832.8,4.99,0.00,28.9,26.6,00.0,38.0,30.6,14.4,0001.5,0057.37,0039.86,0037.56
2021-09-07 19:23:00,,0832.8,5.00,0.00,28.9,27.0,00.0,38.0,30.7,14.3,0001.8,0060.33,0040.22,0037.82
2021-09-07 19:24:00,,0832.8,5.00,0.00,29.0,27.4,00.0,38.0,30.8,14.3,0001.8,0061.37,0040.51,0038.08
2021-09-07 19:25:00,,0832.8,4.99,0.00,29.0,27.8,00.0,38.0,30.9,14.2,0002.1,0061.34,0040.72,0038.26
2021-09-07 19:26:00,,0832.7,5.00,0.00,29.1,28.0,00.0,38.1,31.0,14.1,0002.1,0061.19,0040.89,0038.39
2021-09-07 19:27:00,,0832.7,5.02,0.00,29.2,28.2,00.0,38.1,31.1,14.2,0001.4,0061.81,0041.06,0038.49
2021-09-07 19:28:00,,0832.7,5.00,0.00,29.2,27.4,00.0,38.1,30.9,14.2,0000.7,0062.49,0041.14,0038.60
2021-09-07 19:29:00,,0832.7,5.01,0.00,29.0,25.7,00.0,38.1,30.4,14.2,0000.9,0063.21,0041.32,0038.69
2021-09-07 19:30:00,,0832.7,5.00,0.00,28.9,25.6,00.0,38.1,30.3,14.7,0001.5,0062.81,0041.39,0038.74
2021-09-07 19:31:00,,0832.7,4.99,0.00,28.9,26.0,00.0,38.0,30.4,15.2,0001.3,0064.17,0041.54,0038.87
2021-09-07 19:32:00,,0832.6,5.00,0.00,28.9,26.5,00.0,38.0,30.5,15.5,0000.9,0065.18,0041.68,0038.98
2021-09-07 19:33:00,,0832.7,5.01,0.00,28.9,26.9,00.0,38.0,30.6,15.7,0000.9,0066.93,0041.77,0039.04
2021-09-07 19:34:00,,0832.7,5.00,0.00,28.9,27.3,00.0,38.0,30.7,15.5,0000.5,0065.12,0041.78,0039.08
2021-09-07 19:35:00,,0832.7,5.01,0.00,29.0,27.7,00.0,38.0,30.9,15.3,0000.2,0064.25,0041.91,0039.19
2021-09-07 19:36:00,,0832.6,5.00,0.00,29.1,28.0,00.0,38.0,31.0,15.4,0000.2,0064.40,0041.98,0039.25
2021-09-07 19:37:00,,0832.6,5.00,0.00,29.1,28.2,00.0,38.0,31.1,15.3,0000.2,0065.22,0042.12,0039.36
2021-09-07 19:38:00,,0832.6,4.99,0.00,29.2,28.4,00.0,38.1,31.1,15.3,0001.2,0065.22,0042.28,0039.48
2021-09-07 19:39:00,,0832.6,5.01,0.00,29.2,27.9,00.0,38.1,31.0,15.3,0001.8,0065.65,0042.48,0039.60
2021-09-07 19:40:00,,0832.6,5.01,0.00,29.1,26.1,00.0,38.1,30.5,15.6,0002.0,0065.99,0042.63,0039.70
2021-09-07 19:41:00,,0832.6,5.00,0.00,29.0,25.6,00.0,38.1,30.3,15.8,0001.9,0067.22,0042.74,0039.78
2021-09-07 19:42:00,,0832.6,5.00,0.00,28.9,26.0,00.0,38.0,30.5,15.9,0002.0,0067.02,0042.83,0039.83
2021-09-07 19:43:00,,0832.6,5.02,0.00,28.9,26.5,00.0,38.0,30.6,15.9,0002.5,0067.67,0042.92,0039.89
2021-09-07 19:44:00,,0832.6,4.99,0.00,28.9,26.9,00.0,38.0,30.6,16.0,0002.1,0067.71,0042.91,0039.91
2021-09-07 19:45:00,,0832.6,5.01,0.00,29.0,27.3,00.0,38.0,30.8,15.6,0002.2,0068.73,0042.85,0039.90
2021-09-07 19:46:00,,0832.6,5.01,0.00,29.0,27.7,00.0,38.0,30.9,15.6,0002.5,0068.88,0042.82,0039.83
2021-09-07 19:47:00,,0832.5,4.99,0.00,29.1,28.0,00.0,38.0,31.0,15.6,0002.7,0068.84,0042.81,0039.79
2021-09-07 19:48:00,,0832.6,5.00,0.00,29.1,28.2,00.0,38.1,31.1,15.4,0002.4,0068.19,0042.72,0039.74
2021-09-07 19:49:00,,0832.6,5.00,0.00,29.2,28.4,00.0,38.1,31.2,15.3,0001.9,0067.93,0042.61,0039.69
2021-09-07 19:50:00,,0832.5,5.00,0.00,29.3,28.6,00.0,38.1,31.2,15.3,0001.9,0067.38,0042.56,0039.65
2021-09-07 19:51:00,,0832.5,5.00,0.00,29.3,28.4,00.0,38.2,31.2,15.4,0001.6,0068.84,0042.52,0039.60
2021-09-07 19:52:00,,0832.5,5.00,0.00,29.3,26.7,00.0,38.2,30.7,15.4,0001.5,0068.53,0042.59,0039.59
2021-09-07 19:53:00,,0832.5,5.00,0.00,29.1,25.6,00.0,38.1,30.4,15.6,0001.7,0067.71,0042.62,0039.58
2021-09-07 19:54:00,,0832.5,5.00,0.00,29.0,26.0,00.0,38.1,30.5,16.0,0001.7,0065.83,0042.59,0039.54
2021-09-07 19:55:00,,0832.4,5.00,0.00,29.0,26.4,00.0,38.1,30.6,15.9,0001.7,0064.09,0042.61,0039.53
2021-09-07 19:56:00,,0832.4,4.99,0.00,29.0,26.9,00.0,38.1,30.7,15.8,0002.1,0063.18,0042.67,0039.54
2021-09-07 19:57:00,,0832.4,5.01,0.00,29.1,27.3,00.0,38.1,30.9,15.9,0002.1,0063.98,0042.75,0039.57
2021-09-07 19:58:00,,0832.4,4.99,0.00,29.1,27.7,00.0,38.1,31.0,15.9,0001.7,0064.05,0042.73,0039.56
2021-09-07 19:59:00,,0832.4,5.00,0.00,29.2,28.0,00.0,38.1,31.0,15.4,0001.7,0064.18,0042.76,0039.59
